International Skating Union - Official Site

ISU World Cup Speed Skating Calgary
December 1-3, 2017

Draw | Lap Times | Index | World Cup

Referee: Dan  IMMERFALL  (USA)
Starter: Bruce  LANSER  (USA)
StartTime: EndTime: Air Temp: Ice Temp: Humidity:
13:22 13:44 15 ℃ -8.6 ℃ 29%
Result Team Pursuit Ladies
Rankings as of Dec 2 2017 2:02PM
Rank: No.: Team: Nation: Time: Behind: Points:
Total 9
1 12 Japan (259) Miho Takagi (253) Ayaka Kikuchi (260) Nana Takagi (257) Ayano Sato JPN JPN 2:53.880.5 - 18.30 - (18.3)
1.0 - 32.04 - (13.7)
1.5 - 45.73 - (13.6)
2.0 - 59.55 - (13.8)
2.5 - 1:13.57 - (14.0)
3.0 - 1:27.72 - (14.1)
3.5 - 1:42.00 - (14.2)
4.0 - 1:56.09 - (14.0)
4.5 - 2:10.26 - (14.1)
5.0 - 2:24.51 - (14.2)
5.5 - 2:39.05 - (14.5)
6.0 - 2:53.88 - (14.8)
100
2 10 Germany (245) Claudia Pechstein (243) Roxane Dufter (244) Gabriele Hirschbichler (246) Michelle Uhrig GER GER 2:56.760.5 - 19.04 - (19.0)
1.0 - 33.24 - (14.2)
1.5 - 47.31 - (14.0)
2.0 - 1:01.23 - (13.9)
2.5 - 1:15.33 - (14.1)
3.0 - 1:29.65 - (14.3)
3.5 - 1:43.91 - (14.2)
4.0 - 1:58.31 - (14.4)
4.5 - 2:12.68 - (14.3)
5.0 - 2:27.20 - (14.5)
5.5 - 2:41.88 - (14.6)
6.0 - 2:56.76 - (14.8)
2.88 80
3 4 Canada (208) Ivanie Blondin (209) Kali Christ (218) Isabelle Weidemann (214) Josie Morrison CAN CAN 2:56.800.5 - 19.49 - (19.4)
1.0 - 33.64 - (14.1)
1.5 - 47.50 - (13.8)
2.0 - 1:01.50 - (14.0)
2.5 - 1:15.45 - (13.9)
3.0 - 1:29.56 - (14.1)
3.5 - 1:43.87 - (14.3)
4.0 - 1:58.07 - (14.1)
4.5 - 2:12.41 - (14.3)
5.0 - 2:27.06 - (14.6)
5.5 - 2:41.81 - (14.7)
6.0 - 2:56.80 - (14.9)
2.92 70
4 5 China (221) Jiachen Hao (220) Mei Han (224) Jing Liu (223) Dan Li CHN CHN 2:57.260.5 - 18.63 - (18.6)
1.0 - 32.50 - (13.8)
1.5 - 46.28 - (13.7)
2.0 - 1:00.04 - (13.7)
2.5 - 1:14.07 - (14.0)
3.0 - 1:28.09 - (14.0)
3.5 - 1:42.43 - (14.3)
4.0 - 1:57.10 - (14.6)
4.5 - 2:11.72 - (14.6)
5.0 - 2:26.75 - (15.0)
5.5 - 2:42.01 - (15.2)
6.0 - 2:57.26 - (15.2)
3.38 60
5 20 Russia (308) Natalia Voronina (303) Olga Graf (305) Elizaveta Kazelina (304) Alexandra Kachurkina RUS RUS 2:59.070.5 - 19.21 - (19.2)
1.0 - 33.21 - (14.0)
1.5 - 47.22 - (14.0)
2.0 - 1:01.43 - (14.2)
2.5 - 1:15.91 - (14.4)
3.0 - 1:30.53 - (14.6)
3.5 - 1:44.84 - (14.3)
4.0 - 1:59.38 - (14.5)
4.5 - 2:13.87 - (14.4)
5.0 - 2:28.72 - (14.8)
5.5 - 2:43.70 - (14.9)
6.0 - 2:59.07 - (15.3)
5.19 50
6 18 Poland (290) Katarzyna Bachleda-Curus (292) Natalia Czerwonka (294) Katarzyna Wozniak (296) Luiza Zlotkowska POL POL 3:00.560.5 - 19.40 - (19.3)
1.0 - 33.83 - (14.4)
1.5 - 48.10 - (14.2)
2.0 - 1:02.36 - (14.2)
2.5 - 1:16.71 - (14.3)
3.0 - 1:30.84 - (14.1)
3.5 - 1:45.16 - (14.3)
4.0 - 1:59.82 - (14.6)
4.5 - 2:14.90 - (15.0)
5.0 - 2:30.06 - (15.1)
5.5 - 2:45.46 - (15.4)
6.0 - 3:00.56 - (15.0)
6.68 45
7 14 Korea (269) Seon-Yeong Noh (270) Ji Woo Park (265) Bo-Reum Kim KOR KOR 3:01.820.5 - 19.06 - (19.0)
1.0 - 33.24 - (14.1)
1.5 - 47.43 - (14.1)
2.0 - 1:01.86 - (14.4)
2.5 - 1:16.29 - (14.4)
3.0 - 1:30.82 - (14.5)
3.5 - 1:45.33 - (14.5)
4.0 - 2:00.23 - (14.9)
4.5 - 2:15.46 - (15.2)
5.0 - 2:30.94 - (15.4)
5.5 - 2:46.31 - (15.3)
6.0 - 3:01.82 - (15.5)
7.94 40
8 23 USA (312) Petra Acker (317) Carlijn Schoutens (316) Mia Manganello (313) Heather Bergsma USA USA 3:02.160.5 - 19.50 - (19.5)
1.0 - 33.68 - (14.1)
1.5 - 47.70 - (14.0)
2.0 - 1:01.85 - (14.1)
2.5 - 1:16.35 - (14.4)
3.0 - 1:30.85 - (14.5)
3.5 - 1:45.52 - (14.6)
4.0 - 2:00.45 - (14.9)
4.5 - 2:15.74 - (15.2)
5.0 - 2:30.91 - (15.1)
5.5 - 2:46.33 - (15.4)
6.0 - 3:02.16 - (15.8)
8.28 35
9 15 Netherlands (280) Marrit Leenstra (274) Antoinette de Jong (283) Lotte van Beek (285) Melissa Wijfje NED NED DNF0.5 - 18.48 - (18.4)
1.0 - 32.40 - (13.9)
1.5 - 46.20 - (13.8)
2.0 - 59.98 - (13.7)
2.5 - 1:14.08 - (14.1)
3.0 - 1:28.14 - (14.0)
3.5 - 1:42.35 - (14.2)
4.0 - 1:56.80 - (14.4)
4.5 - 2:11.06 - (14.2)
5.0 - 2:25.48 - (14.4)
5.5 - 2:40.34 - (14.8)
6.0 - 3:16.90 - (36.5)
0